TimeEST,TemperatureF,Dew PointF,Humidity,Sea Level PressureIn,VisibilityMPH,Wind Direction,Wind SpeedMPH,Gust SpeedMPH,PrecipitationIn,Events,Conditions,WindDirDegrees,DateUTC
12:53 AM,59.0,50.0,72,29.95,10.0,South,8.1,-,N/A,,Overcast,180,2013-11-07 05:53:00
1:53 AM,59.0,50.0,72,29.93,10.0,South,5.8,-,N/A,,Overcast,190,2013-11-07 06:53:00
2:53 AM,59.0,50.0,72,29.90,10.0,Variable,5.8,-,N/A,,Overcast,0,2013-11-07 07:53:00
3:53 AM,57.9,50.0,75,29.87,10.0,Variable,3.5,-,N/A,,Overcast,0,2013-11-07 08:53:00
4:53 AM,57.9,50.0,75,29.86,10.0,Variable,3.5,-,0.00,Rain,Light Rain,0,2013-11-07 09:53:00
5:53 AM,55.0,53.1,93,29.87,4.0,Calm,Calm,-,0.09,Rain,Rain,0,2013-11-07 10:53:00
6:46 AM,54.0,53.1,97,29.87,3.0,Calm,Calm,-,0.10,Rain,Rain,0,2013-11-07 11:46:00
6:53 AM,54.0,53.1,97,29.87,3.0,Variable,3.5,-,0.11,Rain,Rain,0,2013-11-07 11:53:00
7:09 AM,55.0,53.1,93,29.88,5.0,Calm,Calm,-,0.03,Rain,Light Rain,0,2013-11-07 12:09:00
7:26 AM,55.0,53.1,93,29.88,4.0,Calm,Calm,-,0.05,Rain,Rain,0,2013-11-07 12:26:00
7:53 AM,54.0,53.1,97,29.88,3.0,Calm,Calm,-,0.08,Rain,Light Rain,0,2013-11-07 12:53:00
8:04 AM,54.0,53.1,97,29.89,1.8,Calm,Calm,-,0.02,Rain,Rain,0,2013-11-07 13:04:00
8:25 AM,55.0,53.1,93,29.87,3.0,Calm,Calm,-,0.06,Rain,Light Rain,0,2013-11-07 13:25:00
8:53 AM,55.0,53.1,93,29.88,5.0,Calm,Calm,-,0.07,Rain,Light Rain,0,2013-11-07 13:53:00
9:53 AM,55.0,53.1,93,29.89,10.0,Variable,3.5,-,0.04,Rain,Light Rain,0,2013-11-07 14:53:00
10:53 AM,54.0,50.0,86,29.89,6.0,WNW,4.6,-,0.03,Rain,Light Rain,290,2013-11-07 15:53:00
11:22 AM,53.1,50.0,89,29.91,9.0,WNW,5.8,-,0.01,Rain,Light Rain,300,2013-11-07 16:22:00
11:53 AM,52.0,46.9,83,29.90,9.0,WNW,9.2,-,0.03,Rain,Light Rain,290,2013-11-07 16:53:00
12:12 PM,51.1,46.0,83,29.90,10.0,WNW,6.9,-,0.00,Rain,Light Rain,300,2013-11-07 17:12:00
12:53 PM,51.1,45.0,80,29.91,10.0,WNW,9.2,-,0.00,,Overcast,290,2013-11-07 17:53:00
1:53 PM,51.1,42.1,71,29.92,10.0,NW,13.8,-,N/A,,Overcast,320,2013-11-07 18:53:00
2:53 PM,51.1,39.9,66,29.93,10.0,WNW,9.2,18.4,N/A,,Overcast,290,2013-11-07 19:53:00
3:53 PM,50.0,36.0,59,29.94,10.0,WNW,11.5,-,0.00,,Scattered Clouds,300,2013-11-07 20:53:00
4:53 PM,46.0,36.0,68,29.97,10.0,WNW,9.2,25.3,0.00,Rain,Light Rain,300,2013-11-07 21:53:00
5:53 PM,46.0,33.1,61,29.98,10.0,NW,9.2,-,0.00,,Partly Cloudy,320,2013-11-07 22:53:00
6:53 PM,46.0,34.0,63,29.99,10.0,NW,5.8,-,N/A,,Overcast,320,2013-11-07 23:53:00
7:53 PM,46.0,34.0,63,30.02,10.0,Variable,6.9,-,0.00,,Overcast,0,2013-11-08 00:53:00
8:53 PM,43.0,33.1,68,30.04,10.0,NW,12.7,25.3,N/A,,Overcast,310,2013-11-08 01:53:00
9:53 PM,42.1,24.1,49,30.04,10.0,WNW,9.2,20.7,0.00,,Overcast,300,2013-11-08 02:53:00
10:53 PM,42.1,25.0,51,30.04,10.0,WNW,10.4,-,N/A,,Overcast,290,2013-11-08 03:53:00
11:53 PM,39.9,24.1,53,30.04,10.0,West,5.8,-,N/A,,Scattered Clouds,280,2013-11-08 04:53:00